This is the latest recevied weather packets stored in our database for station/object SV9TNF-56. If no packets are shown the sender has not sent any weather packets the latest 10 day(s).
| Time | Temp. | Humidity | Pressure | Rain* | Wind** | Luminosity | Snow |
|---|---|---|---|---|---|---|---|
| 1787992606 | 24.44° C | 60% | 1020.3 hPa | 0 mm | 17.88 m/s, 192° | - | - |
| 1787992306 | 24.44° C | 59% | 1020.3 hPa | 0 mm | 5.81 m/s, 189° | - | - |
| 1787992006 | 24.44° C | 57% | 1020.7 hPa | 0 mm | 12.52 m/s, 70° | - | - |
| 1787991706 | 24.44° C | 58% | 1020.7 hPa | 0 mm | 7.6 m/s, 186° | - | - |
| 1787991406 | 24.44° C | 59% | 1020.7 hPa | 0 mm | 12.07 m/s, 167° | - | - |
| 1787991105 | 24.44° C | 59% | 1020.7 hPa | 0 mm | 12.96 m/s, 172° | - | - |
| 1787990805 | 24.44° C | 58% | 1020.7 hPa | 0 mm | 15.2 m/s, 178° | - | - |
| 1787990505 | 24.44° C | 57% | 1020.7 hPa | 0 mm | 12.07 m/s, 185° | - | - |
| 1787990206 | 24.44° C | 56% | 1020.7 hPa | 0 mm | 7.6 m/s, 216° | - | - |
| 1787989905 | 24.44° C | 57% | 1020.7 hPa | 0 mm | 20.56 m/s, 222° | - | - |
| 1787989605 | 24.44° C | 57% | 1020.7 hPa | 0 mm | 15.2 m/s, 190° | - | - |
| 1787989305 | 24.44° C | 57% | 1020.3 hPa | 0 mm | 7.15 m/s, 192° | - | - |
| 1787989005 | 23.89° C | 57% | 1020.7 hPa | 0 mm | 4.92 m/s, 246° | - | - |
| 1787988705 | 23.89° C | 57% | 1020.7 hPa | 0 mm | 16.99 m/s, 148° | - | - |
| 1787988405 | 23.89° C | 56% | 1020.7 hPa | 0 mm | 4.92 m/s, 222° | - | - |
| 1787988104 | 24.44° C | 57% | 1020.7 hPa | 0 mm | 15.2 m/s, 240° | - | - |
| 1787987804 | 23.89° C | 57% | 1020.7 hPa | 0 mm | 10.28 m/s, 149° | - | - |
| 1787987504 | 23.89° C | 58% | 1020.3 hPa | 0 mm | 12.52 m/s, 138° | - | - |
| 1787987204 | 23.89° C | 57% | 1020.3 hPa | 0 mm | 17.88 m/s, 156° | - | - |
| 1787986904 | 23.89° C | 59% | 1020.3 hPa | 0 mm | 9.83 m/s, 227° | - | - |
| 1787986604 | 23.89° C | 60% | 1020.3 hPa | 0 mm | 13.41 m/s, 228° | - | - |
| 1787986304 | 23.89° C | 59% | 1020.3 hPa | 0 mm | 12.07 m/s, 96° | - | - |
| 1787986004 | 23.89° C | 60% | 1019.6 hPa | 0 mm | 16.09 m/s, 143° | - | - |
| 1787985704 | 23.89° C | 60% | 1019.6 hPa | 0 mm | 15.2 m/s, 66° | - | - |
| 1787985404 | 23.33° C | 59% | 1019.6 hPa | 0 mm | 21.46 m/s, 92° | - | - |
* Rain latest hour (hover to see other rain measurements)
** Current wind speed in m/s (hover to see current wind gust speed)